This is the latest recevied weather packets stored in our database for station/object KE5QKR. If no packets are shown the sender has not sent any weather packets the latest 10 day(s).
| Time | Temp. | Humidity | Pressure | Rain* | Wind** | Luminosity | Snow |
|---|---|---|---|---|---|---|---|
| 1777691804 | 12.22° C | 99% | 1012 hPa | 0 mm | - | 0 W/m² | - |
| 1777691502 | 12.22° C | 99% | 1011.9 hPa | 0 mm | - | 0 W/m² | - |
| 1777691201 | 12.22° C | 99% | 1012.2 hPa | 0 mm | - | 0 W/m² | - |
| 1777690898 | 12.22° C | 99% | 1012 hPa | 0 mm | - | 0 W/m² | - |
| 1777690595 | 12.22° C | 99% | 1012.2 hPa | 0 mm | - | 0 W/m² | - |
| 1777690293 | 12.22° C | 99% | 1011.8 hPa | 0 mm | - | 0 W/m² | - |
| 1777689991 | 12.22° C | 99% | 1011 hPa | 0 mm | - | 0 W/m² | - |
| 1777689689 | 12.22° C | 99% | 1011.2 hPa | 0 mm | - | 0 W/m² | - |
| 1777689387 | 12.22° C | 99% | 1011.4 hPa | 0 mm | - | 0 W/m² | - |
| 1777689083 | 12.22° C | 99% | 1011.3 hPa | 0 mm | - | 0 W/m² | - |
| 1777688780 | 12.22° C | 99% | 1011.1 hPa | 0 mm | - | 0 W/m² | - |
| 1777687872 | 12.22° C | 99% | 1011.3 hPa | 0 mm | - | 0 W/m² | - |
| 1777687570 | 12.22° C | 99% | 1011.1 hPa | 0 mm | - | 0 W/m² | - |
| 1777673328 | 12.78° C | 99% | 1011.6 hPa | 0 mm | - | 10 W/m² | - |
| 1777672721 | 12.78° C | 99% | 1010.5 hPa | 0 mm | - | 27 W/m² | - |
| 1777670897 | 12.78° C | 99% | 1010.4 hPa | 0 mm | - | 20 W/m² | - |
| 1777670594 | 12.78° C | 99% | 1010.2 hPa | 0 mm | - | 14 W/m² | - |
| 1777670291 | 12.78° C | 99% | 1009.9 hPa | 0 mm | - | 28 W/m² | - |
| 1777669988 | 13.33° C | 99% | 1010.3 hPa | 0 mm | - | 19 W/m² | - |
| 1777669382 | 13.33° C | 99% | 1010.1 hPa | 0 mm | - | 31 W/m² | - |
| 1777669078 | 13.89° C | 99% | 1010.4 hPa | 0 mm | - | 19 W/m² | - |
| 1777668775 | 13.89° C | 99% | 1010.4 hPa | 0 mm | - | 18 W/m² | - |
| 1777668169 | 14.44° C | 99% | 1010.2 hPa | 0 mm | - | 16 W/m² | - |
| 1777667865 | 15° C | 99% | 1010.1 hPa | 0 mm | - | 22 W/m² | - |
| 1777667562 | 15.56° C | 99% | 1010.3 hPa | 0 mm | - | 18 W/m² | - |
* Rain latest hour (hover to see other rain measurements)
** Current wind speed in m/s (hover to see current wind gust speed)